Location: Fayetteville
(35.0530°N, 78.8790°W)
Time: 01:54:34
(UTC-05:00)

ISS - Visible Passes

Search period start: 17 January 2017 00:00
Search period end: 27 January 2017 00:00
Orbit: 400 x 410 km, 51.6° (Epoch: 17 January)

Date Brightness Start Highest point End Pass type
(mag) Time Alt. Az. Time Alt. Az. Time Alt. Az.
17 Jan -1.8 06:06:00 18° NNW 06:07:47 30° NE 06:10:42 10° E visible
18 Jan -0.7 05:16:06 17° NE 05:16:06 17° NE 05:17:44 10° ENE visible
18 Jan -2.8 06:48:57 10° WNW 06:52:04 44° SW 06:55:10 10° SSE visible
19 Jan -3.4 05:58:57 42° NW 05:59:54 80° NE 06:03:09 10° SE visible
20 Jan -0.8 05:09:11 22° E 05:09:11 22° E 05:10:42 10° ESE visible
20 Jan -1.4 06:41:53 10° W 06:43:52 16° SW 06:45:57 10° SSW visible
21 Jan -2.3 05:52:12 32° SSW 05:52:12 32° SSW 05:54:45 10° SSE visible
22 Jan -0.2 05:02:36 12° SE 05:02:36 12° SE 05:02:52 10° SE visible
25 Jan -1.5 18:57:57 10° S 18:59:42 18° SSE 18:59:42 18° SSE visible
26 Jan -1.3 19:41:06 10° WSW 19:42:48 27° WSW 19:42:48 27° WSW visible
